| time (UTC) | temp F | wind direction | speed knots | gust knots | rain 1hr in | rain 24hr in | rain mn in | humidity % | barometer mb |
| 20260504210010 | 78 | 333 | 6.1 | 9.6 | 0.00 | 0.00 | 0.00 | 31 | 1013.4 |
| 20260504204513 | 78 | 326 | 5.2 | 10.4 | 0.00 | 0.00 | 0.00 | 31 | 1013.5 |
| 20260504203012 | 78 | 270 | 5.2 | 13.0 | 0.00 | 0.00 | 0.00 | 32 | 1013.5 |
| 20260504201515 | 77 | 320 | 5.2 | 11.3 | 0.00 | 0.00 | 0.00 | 32 | 1013.7 |
| 20260504200014 | 77 | 266 | 4.3 | 9.6 | 0.00 | 0.00 | 0.00 | 34 | 1014.2 |
| 20260504194518 | 77 | 226 | 3.5 | 9.6 | 0.00 | 0.00 | 0.00 | 34 | 1013.9 |
| 20260504193019 | 77 | 319 | 5.2 | 11.3 | 0.00 | 0.00 | 0.00 | 32 | 1014.2 |
| 20260504191511 | 77 | 312 | 6.1 | 10.4 | 0.00 | 0.00 | 0.00 | 32 | 1014.4 |
| 20260504190019 | 77 | 295 | 4.3 | 8.7 | 0.00 | 0.00 | 0.00 | 32 | 1014.6 |
| 20260504184537 | 78 | 279 | 1.7 | 5.2 | 0.00 | 0.00 | 0.00 | 29 | 1015.0 |
| 20260504183016 | 77 | 32 | 2.6 | 4.3 | 0.00 | 0.00 | 0.00 | 32 | 1015.1 |
| 20260504181518 | 75 | 46 | 5.2 | 10.4 | 0.00 | 0.00 | 0.00 | 33 | 1015.2 |
| 20260504180016 | 76 | 27 | 6.1 | 10.4 | 0.00 | 0.00 | 0.00 | 32 | 1015.6 |
| 20260504174518 | 75 | 330 | 4.3 | 10.4 | 0.00 | 0.00 | 0.00 | 32 | 1015.4 |
| 20260504173018 | 74 | 348 | 3.5 | 10.4 | 0.00 | 0.00 | 0.00 | 34 | 1015.6 |
| 20260504171519 | 74 | 271 | 3.5 | 8.7 | 0.00 | 0.00 | 0.00 | 35 | 1015.5 |
| 20260504081517 | 41 | 137 | 0.0 | 0.9 | 0.00 | 0.00 | 0.00 | 88 | 1016.4 |
| 20260504050013 | 47 | 157 | 0.0 | 0.0 | 0.00 | 0.00 | 0.00 | 72 | 1016.6 |
| 20260504044519 | 47 | 157 | 0.0 | 0.0 | 0.00 | 0.00 | 0.00 | 74 | 1016.7 |
| 20260504043022 | 50 | 180 | 0.0 | 0.0 | 0.00 | 0.00 | 0.00 | 66 | 1016.5 |
| 20260504041507 | 51 | 202 | 0.0 | 0.9 | 0.00 | 0.00 | 0.00 | 64 | 1016.5 |
| 20260504040010 | 49 | 202 | 0.0 | 0.0 | 0.00 | 0.00 | 0.00 | 67 | 1016.4 |
| 20260504034518 | 48 | 155 | 0.0 | 0.0 | 0.00 | 0.00 | 0.00 | 69 | 1016.5 |
| 20260504033018 | 48 | 169 | 0.0 | 0.0 | 0.00 | 0.00 | 0.00 | 68 | 1016.5 |
| 20260504031524 | 48 | 169 | 0.0 | 0.0 | 0.00 | 0.00 | 0.00 | 69 | 1016.8 |
| 20260504030008 | 48 | 169 | 0.0 | 0.0 | 0.00 | 0.00 | 0.00 | 69 | 1016.7 |
| 20260504024512 | 49 | 169 | 0.0 | 0.0 | 0.00 | 0.00 | 0.00 | 67 | 1016.8 |
| 20260504023014 | 50 | 169 | 0.0 | 0.0 | 0.00 | 0.00 | 0.00 | 64 | 1016.8 |
| 20260504021522 | 51 | 169 | 0.0 | 0.0 | 0.00 | 0.00 | 0.00 | 64 | 1016.7 |
| 20260504020026 | 52 | 182 | 0.0 | 0.0 | 0.00 | 0.00 | 0.00 | 56 | 1016.3 |
| 20260504014508 | 54 | 182 | 0.0 | 0.0 | 0.00 | 0.00 | 0.00 | 56 | 1016.0 |
| 20260504013016 | 57 | 182 | 0.0 | 0.0 | 0.00 | 0.00 | 0.00 | 49 | 1015.8 |
| 20260504011519 | 58 | 182 | 0.0 | 0.0 | 0.00 | 0.00 | 0.00 | 46 | 1015.8 |
| 20260504010020 | 57 | 182 | 0.0 | 0.9 | 0.00 | 0.00 | 0.00 | 46 | 1015.6 |
| 20260504004525 | 57 | 179 | 0.0 | 0.0 | 0.00 | 0.00 | 0.00 | 52 | 1015.5 |
| 20260504003010 | 58 | 179 | 0.0 | 0.0 | 0.00 | 0.00 | 0.00 | 51 | 1015.6 |
| 20260504001511 | 60 | 186 | 0.0 | 0.9 | 0.00 | 0.00 | 0.00 | 47 | 1015.3 |
| 20260504000018 | 63 | 196 | 0.0 | 0.9 | 0.00 | 0.00 | 0.00 | 43 | 1015.3 |
| 20260503234523 | 64 | 196 | 0.0 | 0.9 | 0.00 | 0.00 | 0.00 | 38 | 1015.2 |
| 20260503233035 | 66 | 214 | 1.7 | 3.5 | 0.00 | 0.00 | 0.00 | 35 | 1015.2 |
| 20260503231508 | 67 | 262 | 0.9 | 2.6 | 0.00 | 0.00 | 0.00 | 34 | 1015.2 |
| 20260503230016 | 67 | 274 | 2.6 | 5.2 | 0.00 | 0.00 | 0.00 | 31 | 1015.3 |
| 20260503224527 | 67 | 309 | 2.6 | 4.3 | 0.00 | 0.00 | 0.00 | 31 | 1015.3 |
| 20260503223004 | 67 | 233 | 2.6 | 7.0 | 0.00 | 0.00 | 0.00 | 30 | 1015.4 |
| 20260503221508 | 67 | 286 | 2.6 | 7.0 | 0.00 | 0.00 | 0.00 | 30 | 1015.4 |
| 20260503220018 | 68 | 257 | 3.5 | 9.6 | 0.00 | 0.00 | 0.00 | 28 | 1015.6 |
| 20260503214518 | 69 | 330 | 4.3 | 11.3 | 0.00 | 0.00 | 0.00 | 24 | 1015.7 |
| 20260503213022 | 69 | 14 | 5.2 | 12.2 | 0.00 | 0.00 | 0.00 | 23 | 1015.8 |
| 20260503211505 | 69 | 313 | 1.7 | 7.0 | 0.00 | 0.00 | 0.00 | 24 | 1016.0 |